Morrison, Minnesota
Current Conditions -  °F | °C
As of 6:14 PM on Friday 19 Dec 2014 (Local Time) from KAIT Reporting Station
Haze Haze  
Wind Chill: 19°   Ceiling: 700
Heat Index: 27°   Visibility: 4mi
Dew Point: 21°   Wind: 7mph
Humidity: 80%   Direction: 160°SSE
Pressure: 30.12"   Gusts: NA
Location:  46.7281°N, 93.6101°W
Report Text: KAIT 200014Z AUTO 16006KT 4SM HZ OVC007 M03/M06 A3012 RMK AO2
Loading
Personal Weather Stations






























Interactive Weather Map New forecast layout! Learn more

10-Day Weather Forecast

Advertisements
Track Severe Weather on mobile